Year,Month,Day,Hour,Minute,Value (Times are PST for windgust in km/hr)
2008,06,05,00,00,8.10
2008,06,05,00,01,8.10
2008,06,05,00,02,6.40
2008,06,05,00,03,8.10
2008,06,05,00,04,8.10
2008,06,05,00,05,6.40
2008,06,05,00,06,8.10
2008,06,05,00,07,8.10
2008,06,05,00,08,6.40
2008,06,05,00,09,6.40
2008,06,05,00,10,6.40
2008,06,05,00,11,3.20
2008,06,05,00,12,6.40
2008,06,05,00,13,3.20
2008,06,05,00,14,4.80
2008,06,05,00,15,4.80
2008,06,05,00,16,4.80
2008,06,05,00,17,4.80
2008,06,05,00,18,4.80
2008,06,05,00,19,4.80
2008,06,05,00,20,4.80
2008,06,05,00,21,6.40
2008,06,05,00,22,6.40
2008,06,05,00,23,6.40
2008,06,05,00,24,8.10
2008,06,05,00,25,4.80
2008,06,05,00,26,6.40
2008,06,05,00,27,6.40
2008,06,05,00,28,4.80
2008,06,05,00,29,4.80
2008,06,05,00,30,3.20
2008,06,05,00,31,4.80
2008,06,05,00,32,3.20
2008,06,05,00,33,3.20
2008,06,05,00,34,4.80
2008,06,05,00,35,4.80
2008,06,05,00,36,6.40
2008,06,05,00,37,6.40
2008,06,05,00,38,6.40
2008,06,05,00,39,4.80
2008,06,05,00,40,6.40
2008,06,05,00,41,4.80
2008,06,05,00,42,6.40
2008,06,05,00,43,6.40
2008,06,05,00,44,4.80
2008,06,05,00,45,6.40
2008,06,05,00,46,4.80
2008,06,05,00,47,4.80
2008,06,05,00,48,4.80
2008,06,05,00,49,6.40
2008,06,05,00,50,6.40
2008,06,05,00,51,4.80
2008,06,05,00,52,3.20
2008,06,05,00,53,3.20
2008,06,05,00,54,0.00
2008,06,05,00,55,0.00
2008,06,05,00,56,3.20
2008,06,05,00,57,3.20
2008,06,05,00,58,1.60
2008,06,05,00,59,1.60
2008,06,05,01,00,3.20
2008,06,05,01,01,3.20
2008,06,05,01,02,1.60
2008,06,05,01,03,1.60
2008,06,05,01,04,3.20
2008,06,05,01,05,1.60
2008,06,05,01,06,3.20
2008,06,05,01,07,3.20
2008,06,05,01,08,1.60
2008,06,05,01,09,0.00
2008,06,05,01,10,3.20
2008,06,05,01,11,1.60
2008,06,05,01,12,0.00
2008,06,05,01,13,0.00
2008,06,05,01,14,0.00
2008,06,05,01,15,0.00
2008,06,05,01,16,3.20
2008,06,05,01,17,3.20
2008,06,05,01,18,3.20
2008,06,05,01,19,4.80
2008,06,05,01,20,4.80
2008,06,05,01,21,3.20
2008,06,05,01,22,4.80
2008,06,05,01,23,1.60
2008,06,05,01,24,0.00
2008,06,05,01,25,0.00
2008,06,05,01,26,0.00
2008,06,05,01,27,0.00
2008,06,05,01,28,0.00
2008,06,05,01,29,0.00
2008,06,05,01,30,1.60
2008,06,05,01,31,1.60
2008,06,05,01,32,3.20
2008,06,05,01,33,3.20
2008,06,05,01,34,1.60
2008,06,05,01,35,3.20
2008,06,05,01,36,3.20
2008,06,05,01,37,1.60
2008,06,05,01,38,0.00
2008,06,05,01,39,1.60
2008,06,05,01,40,0.00
2008,06,05,01,41,0.00
2008,06,05,01,42,3.20
2008,06,05,01,43,1.60
2008,06,05,01,44,0.00
2008,06,05,01,45,0.00
2008,06,05,01,46,0.00
2008,06,05,01,47,0.00
2008,06,05,01,48,3.20
2008,06,05,01,49,1.60
2008,06,05,01,50,1.60
2008,06,05,01,51,0.00
2008,06,05,01,52,0.00
2008,06,05,01,53,0.00
2008,06,05,01,54,0.00
2008,06,05,01,55,0.00
2008,06,05,01,56,0.00
2008,06,05,01,57,0.00
2008,06,05,01,58,0.00
2008,06,05,01,59,0.00
2008,06,05,02,00,3.20
2008,06,05,02,01,1.60
2008,06,05,02,02,3.20
2008,06,05,02,03,3.20
2008,06,05,02,04,3.20
2008,06,05,02,05,4.80
2008,06,05,02,06,3.20
2008,06,05,02,07,3.20
2008,06,05,02,08,3.20
2008,06,05,02,09,1.60
2008,06,05,02,10,0.00
2008,06,05,02,11,0.00
2008,06,05,02,12,0.00
2008,06,05,02,13,0.00
2008,06,05,02,14,0.00
2008,06,05,02,15,0.00
2008,06,05,02,16,0.00
2008,06,05,02,17,0.00
2008,06,05,02,18,1.60
2008,06,05,02,19,0.00
2008,06,05,02,20,0.00
2008,06,05,02,21,0.00
2008,06,05,02,22,0.00
2008,06,05,02,23,0.00
2008,06,05,02,24,0.00
2008,06,05,02,25,3.20
2008,06,05,02,26,3.20
2008,06,05,02,27,1.60
2008,06,05,02,28,0.00
2008,06,05,02,29,3.20
2008,06,05,02,30,1.60
2008,06,05,02,31,0.00
2008,06,05,02,32,1.60
2008,06,05,02,33,1.60
2008,06,05,02,34,3.20
2008,06,05,02,35,0.00
2008,06,05,02,36,1.60
2008,06,05,02,37,0.00
2008,06,05,02,38,0.00
2008,06,05,02,39,3.20
2008,06,05,02,40,4.80
2008,06,05,02,41,3.20
2008,06,05,02,42,3.20
2008,06,05,02,43,4.80
2008,06,05,02,44,3.20
2008,06,05,02,45,3.20
2008,06,05,02,46,0.00
2008,06,05,02,47,1.60
2008,06,05,02,48,0.00
2008,06,05,02,49,0.00
2008,06,05,02,50,0.00
2008,06,05,02,51,0.00
2008,06,05,02,52,0.00
2008,06,05,02,53,0.00
2008,06,05,02,54,0.00
2008,06,05,02,55,0.00
2008,06,05,02,56,0.00
2008,06,05,02,57,0.00
2008,06,05,02,58,0.00
2008,06,05,02,59,1.60
2008,06,05,03,00,0.00
2008,06,05,03,01,0.00
2008,06,05,03,02,0.00
2008,06,05,03,03,0.00
2008,06,05,03,04,0.00
2008,06,05,03,05,0.00
2008,06,05,03,06,0.00
2008,06,05,03,07,0.00
2008,06,05,03,08,0.00
2008,06,05,03,09,0.00
2008,06,05,03,10,0.00
2008,06,05,03,11,0.00
2008,06,05,03,12,3.20
2008,06,05,03,13,3.20
2008,06,05,03,14,3.20
2008,06,05,03,15,3.20
2008,06,05,03,16,4.80
2008,06,05,03,17,4.80
2008,06,05,03,18,4.80
2008,06,05,03,19,4.80
2008,06,05,03,20,4.80
2008,06,05,03,21,3.20
2008,06,05,03,22,3.20
2008,06,05,03,23,4.80
2008,06,05,03,24,4.80
2008,06,05,03,25,4.80
2008,06,05,03,26,4.80
2008,06,05,03,27,4.80
2008,06,05,03,28,3.20
2008,06,05,03,29,3.20
2008,06,05,03,30,3.20
2008,06,05,03,31,0.00
2008,06,05,03,32,0.00
2008,06,05,03,33,0.00
2008,06,05,03,34,0.00
2008,06,05,03,35,0.00
2008,06,05,03,36,0.00
2008,06,05,03,37,1.60
2008,06,05,03,38,3.20
2008,06,05,03,39,3.20
2008,06,05,03,40,1.60
2008,06,05,03,41,0.00
2008,06,05,03,42,0.00
2008,06,05,03,43,0.00
2008,06,05,03,44,0.00
2008,06,05,03,45,3.20
2008,06,05,03,46,3.20
2008,06,05,03,47,1.60
2008,06,05,03,48,1.60
2008,06,05,03,49,0.00
2008,06,05,03,50,0.00
2008,06,05,03,51,0.00
2008,06,05,03,52,0.00
2008,06,05,03,53,3.20
2008,06,05,03,54,3.20
2008,06,05,03,55,3.20
2008,06,05,03,56,3.20
2008,06,05,03,57,3.20
2008,06,05,03,58,3.20
2008,06,05,03,59,3.20
2008,06,05,04,00,1.60
2008,06,05,04,01,1.60
2008,06,05,04,02,3.20
2008,06,05,04,03,1.60
2008,06,05,04,04,4.80
2008,06,05,04,05,6.40
2008,06,05,04,06,4.80
2008,06,05,04,07,4.80
2008,06,05,04,08,6.40
2008,06,05,04,09,6.40
2008,06,05,04,10,8.10
2008,06,05,04,11,9.60
2008,06,05,04,12,8.10
2008,06,05,04,13,11.30
2008,06,05,04,14,11.30
2008,06,05,04,15,8.10
2008,06,05,04,16,9.60
2008,06,05,04,17,9.60
2008,06,05,04,18,9.60
2008,06,05,04,19,6.40
2008,06,05,04,20,6.40
2008,06,05,04,21,6.40
2008,06,05,04,22,4.80
2008,06,05,04,23,6.40
2008,06,05,04,24,6.40
2008,06,05,04,25,3.20
2008,06,05,04,26,4.80
2008,06,05,04,27,1.60
2008,06,05,04,28,4.80
2008,06,05,04,29,0.00
2008,06,05,04,30,0.00
2008,06,05,04,31,0.00
2008,06,05,04,32,0.00
2008,06,05,04,33,0.00
2008,06,05,04,34,0.00
2008,06,05,04,35,0.00
2008,06,05,04,36,0.00
2008,06,05,04,37,0.00
2008,06,05,04,38,0.00
2008,06,05,04,39,0.00
2008,06,05,04,40,1.60
2008,06,05,04,41,0.00
2008,06,05,04,42,0.00
2008,06,05,04,43,4.80
2008,06,05,04,44,6.40
2008,06,05,04,45,9.60
2008,06,05,04,46,9.60
2008,06,05,04,47,8.10
2008,06,05,04,48,6.40
2008,06,05,04,49,9.60
2008,06,05,04,50,6.40
2008,06,05,04,51,1.60
2008,06,05,04,52,8.10
2008,06,05,04,53,8.10
2008,06,05,04,54,4.80
2008,06,05,04,55,11.30
2008,06,05,04,56,11.30
2008,06,05,04,57,14.50
2008,06,05,04,58,8.10
2008,06,05,04,59,8.10
2008,06,05,05,00,8.10
2008,06,05,05,01,6.40
2008,06,05,05,02,6.40
2008,06,05,05,03,8.10
2008,06,05,05,04,6.40
2008,06,05,05,05,4.80
2008,06,05,05,06,4.80
2008,06,05,05,07,4.80
2008,06,05,05,08,3.20
2008,06,05,05,09,6.40
2008,06,05,05,10,4.80
2008,06,05,05,11,1.60
2008,06,05,05,12,1.60
2008,06,05,05,13,0.00
2008,06,05,05,14,0.00
2008,06,05,05,15,3.20
2008,06,05,05,16,1.60
2008,06,05,05,17,0.00
2008,06,05,05,18,0.00
2008,06,05,05,19,0.00
2008,06,05,05,20,0.00
2008,06,05,05,21,1.60
2008,06,05,05,22,0.00
2008,06,05,05,23,0.00
2008,06,05,05,24,1.60
2008,06,05,05,25,1.60
2008,06,05,05,26,1.60
2008,06,05,05,27,0.00
2008,06,05,05,28,0.00
2008,06,05,05,29,0.00
2008,06,05,05,30,0.00
2008,06,05,05,31,0.00
2008,06,05,05,32,0.00
2008,06,05,05,33,0.00
2008,06,05,05,34,0.00
2008,06,05,05,35,0.00
2008,06,05,05,36,0.00
2008,06,05,05,37,0.00
2008,06,05,05,38,0.00
2008,06,05,05,39,0.00
2008,06,05,05,40,0.00
2008,06,05,05,41,0.00
2008,06,05,05,42,0.00
2008,06,05,05,43,3.20
2008,06,05,05,44,3.20
2008,06,05,05,45,4.80
2008,06,05,05,46,4.80
2008,06,05,05,47,4.80
2008,06,05,05,48,4.80
2008,06,05,05,49,4.80
2008,06,05,05,50,3.20
2008,06,05,05,51,4.80
2008,06,05,05,52,3.20
2008,06,05,05,53,0.00
2008,06,05,05,54,0.00
2008,06,05,05,55,0.00
2008,06,05,05,56,0.00
2008,06,05,05,57,0.00
2008,06,05,05,58,0.00
2008,06,05,05,59,0.00
2008,06,05,06,00,0.00
2008,06,05,06,01,0.00
2008,06,05,06,02,0.00
2008,06,05,06,03,0.00
2008,06,05,06,04,0.00
2008,06,05,06,05,0.00
2008,06,05,06,06,0.00
2008,06,05,06,07,0.00
2008,06,05,06,08,0.00
2008,06,05,06,09,0.00
2008,06,05,06,10,0.00
2008,06,05,06,11,0.00
2008,06,05,06,12,0.00
2008,06,05,06,13,1.60
2008,06,05,06,14,1.60
2008,06,05,06,15,0.00
2008,06,05,06,16,0.00
2008,06,05,06,17,0.00
2008,06,05,06,18,0.00
2008,06,05,06,19,0.00
2008,06,05,06,20,4.80
2008,06,05,06,21,4.80
2008,06,05,06,22,3.20
2008,06,05,06,23,1.60
2008,06,05,06,24,1.60
2008,06,05,06,25,3.20
2008,06,05,06,26,3.20
2008,06,05,06,27,6.40
2008,06,05,06,28,1.60
2008,06,05,06,29,4.80
2008,06,05,06,30,3.20
2008,06,05,06,31,3.20
2008,06,05,06,32,3.20
2008,06,05,06,33,3.20
2008,06,05,06,34,3.20
2008,06,05,06,35,3.20
2008,06,05,06,36,3.20
2008,06,05,06,37,6.40
2008,06,05,06,38,6.40
2008,06,05,06,39,6.40
2008,06,05,06,40,8.10
2008,06,05,06,41,6.40
2008,06,05,06,42,6.40
2008,06,05,06,43,8.10
2008,06,05,06,44,1.60
2008,06,05,06,45,0.00
2008,06,05,06,46,3.20
2008,06,05,06,47,0.00
2008,06,05,06,48,0.00
2008,06,05,06,49,0.00
2008,06,05,06,50,0.00
2008,06,05,06,51,0.00
2008,06,05,06,52,3.20
2008,06,05,06,53,0.00
2008,06,05,06,54,0.00
2008,06,05,06,55,0.00
2008,06,05,06,56,0.00
2008,06,05,06,57,1.60
2008,06,05,06,58,3.20
2008,06,05,06,59,4.80
2008,06,05,07,00,6.40
2008,06,05,07,01,3.20
2008,06,05,07,02,0.00
2008,06,05,07,03,0.00
2008,06,05,07,04,0.00
2008,06,05,07,05,0.00
2008,06,05,07,06,1.60
2008,06,05,07,07,0.00
2008,06,05,07,08,0.00
2008,06,05,07,09,0.00
2008,06,05,07,10,1.60
2008,06,05,07,11,3.20
2008,06,05,07,12,8.10
2008,06,05,07,13,4.80
2008,06,05,07,14,3.20
2008,06,05,07,15,6.40
2008,06,05,07,16,11.30
2008,06,05,07,17,11.30
2008,06,05,07,18,11.30
2008,06,05,07,19,11.30
2008,06,05,07,20,8.10
2008,06,05,07,21,14.50
2008,06,05,07,22,9.60
2008,06,05,07,23,9.60
2008,06,05,07,24,9.60
2008,06,05,07,25,9.60
2008,06,05,07,26,12.90
2008,06,05,07,27,3.20
2008,06,05,07,28,3.20
2008,06,05,07,29,1.60
2008,06,05,07,30,3.20
2008,06,05,07,31,4.80
2008,06,05,07,32,3.20
2008,06,05,07,33,3.20
2008,06,05,07,34,1.60
2008,06,05,07,35,1.60
2008,06,05,07,36,0.00
2008,06,05,07,37,0.00
2008,06,05,07,38,1.60
2008,06,05,07,39,1.60
2008,06,05,07,40,3.20
2008,06,05,07,41,3.20
2008,06,05,07,42,3.20
2008,06,05,07,43,3.20
2008,06,05,07,44,3.20
2008,06,05,07,45,3.20
2008,06,05,07,46,3.20
2008,06,05,07,47,3.20
2008,06,05,07,48,4.80
2008,06,05,07,49,4.80
2008,06,05,07,50,4.80
2008,06,05,07,51,4.80
2008,06,05,07,52,6.40
2008,06,05,07,53,6.40
2008,06,05,07,54,4.80
2008,06,05,07,55,4.80
2008,06,05,07,56,3.20
2008,06,05,07,57,4.80
2008,06,05,07,58,3.20
2008,06,05,07,59,9.60
2008,06,05,08,00,6.40
2008,06,05,08,01,4.80
2008,06,05,08,02,6.40
2008,06,05,08,03,8.10
2008,06,05,08,04,11.30
2008,06,05,08,05,9.60
2008,06,05,08,06,11.30
2008,06,05,08,07,4.80
2008,06,05,08,08,4.80
2008,06,05,08,09,4.80
2008,06,05,08,10,4.80
2008,06,05,08,11,3.20
2008,06,05,08,12,3.20
2008,06,05,08,13,1.60
2008,06,05,08,14,3.20
2008,06,05,08,15,4.80
2008,06,05,08,16,6.40
2008,06,05,08,17,1.60
2008,06,05,08,18,3.20
2008,06,05,08,19,1.60
2008,06,05,08,20,3.20
2008,06,05,08,21,1.60
2008,06,05,08,22,0.00
2008,06,05,08,23,0.00
2008,06,05,08,24,0.00
2008,06,05,08,25,0.00
2008,06,05,08,26,1.60
2008,06,05,08,27,3.20
2008,06,05,08,28,1.60
2008,06,05,08,29,1.60
2008,06,05,08,30,1.60
2008,06,05,08,31,0.00
2008,06,05,08,32,0.00
2008,06,05,08,33,0.00
2008,06,05,08,34,0.00
2008,06,05,08,35,0.00
2008,06,05,08,36,3.20
2008,06,05,08,37,1.60
2008,06,05,08,38,0.00
2008,06,05,08,39,0.00
2008,06,05,08,40,0.00
2008,06,05,08,41,3.20
2008,06,05,08,42,0.00
2008,06,05,08,43,1.60
2008,06,05,08,44,0.00
2008,06,05,08,45,1.60
2008,06,05,08,46,1.60
2008,06,05,08,47,1.60
2008,06,05,08,48,3.20
2008,06,05,08,49,4.80
2008,06,05,08,50,6.40
2008,06,05,08,51,0.00
2008,06,05,08,52,0.00
2008,06,05,08,53,1.60
2008,06,05,08,54,0.00
2008,06,05,08,55,3.20
2008,06,05,08,56,1.60
2008,06,05,08,57,3.20
2008,06,05,08,58,1.60
2008,06,05,08,59,3.20
2008,06,05,09,00,1.60
2008,06,05,09,01,3.20
2008,06,05,09,02,3.20
2008,06,05,09,03,4.80
2008,06,05,09,04,6.40
2008,06,05,09,05,4.80
2008,06,05,09,06,4.80
2008,06,05,09,07,4.80
2008,06,05,09,08,1.60
2008,06,05,09,09,1.60
2008,06,05,09,10,4.80
2008,06,05,09,11,3.20
2008,06,05,09,12,1.60
2008,06,05,09,13,3.20
2008,06,05,09,14,1.60
2008,06,05,09,15,4.80
2008,06,05,09,16,4.80
2008,06,05,09,17,3.20
2008,06,05,09,18,3.20
2008,06,05,09,19,6.40
2008,06,05,09,20,6.40
2008,06,05,09,21,4.80
2008,06,05,09,22,3.20
2008,06,05,09,23,1.60
2008,06,05,09,24,3.20
2008,06,05,09,25,1.60
2008,06,05,09,26,1.60
2008,06,05,09,27,0.00
2008,06,05,09,28,0.00
2008,06,05,09,29,1.60
2008,06,05,09,30,0.00
2008,06,05,09,31,4.80
2008,06,05,09,32,4.80
2008,06,05,09,33,3.20
2008,06,05,09,34,1.60
2008,06,05,09,35,6.40
2008,06,05,09,36,0.00
2008,06,05,09,37,1.60
2008,06,05,09,38,1.60
2008,06,05,09,39,3.20
2008,06,05,09,40,6.40
2008,06,05,09,41,6.40
2008,06,05,09,42,1.60
2008,06,05,09,43,1.60
2008,06,05,09,44,1.60
2008,06,05,09,45,3.20
2008,06,05,09,46,3.20
2008,06,05,09,47,6.40
2008,06,05,09,48,1.60
2008,06,05,09,49,3.20
2008,06,05,09,50,1.60
2008,06,05,09,51,3.20
2008,06,05,09,52,1.60
2008,06,05,09,53,1.60
2008,06,05,09,54,9.60
2008,06,05,09,55,6.40
2008,06,05,09,56,3.20
2008,06,05,09,57,4.80
2008,06,05,09,58,3.20
2008,06,05,09,59,8.10
2008,06,05,10,00,9.60
2008,06,05,10,01,6.40
2008,06,05,10,02,3.20
2008,06,05,10,03,9.60
2008,06,05,10,04,3.20
2008,06,05,10,05,8.10
2008,06,05,10,06,8.10
2008,06,05,10,07,11.30
2008,06,05,10,08,9.60
2008,06,05,10,09,8.10
2008,06,05,10,10,3.20
2008,06,05,10,11,4.80
2008,06,05,10,12,3.20
2008,06,05,10,13,4.80
2008,06,05,10,14,4.80
2008,06,05,10,15,4.80
2008,06,05,10,16,8.10
2008,06,05,10,17,6.40
2008,06,05,10,18,4.80
2008,06,05,10,19,8.10
2008,06,05,10,20,3.20
2008,06,05,10,21,1.60
2008,06,05,10,22,6.40
2008,06,05,10,23,3.20
2008,06,05,10,24,3.20
2008,06,05,10,25,6.40
2008,06,05,10,26,4.80
2008,06,05,10,27,4.80
2008,06,05,10,28,3.20
2008,06,05,10,29,3.20
2008,06,05,10,30,1.60
2008,06,05,10,31,1.60
2008,06,05,10,32,8.10
2008,06,05,10,33,3.20
2008,06,05,10,34,9.60
2008,06,05,10,35,4.80
2008,06,05,10,36,3.20
2008,06,05,10,37,6.40
2008,06,05,10,38,8.10
2008,06,05,10,39,3.20
2008,06,05,10,40,4.80
2008,06,05,10,41,4.80
2008,06,05,10,42,4.80
2008,06,05,10,43,1.60
2008,06,05,10,44,1.60
2008,06,05,10,45,3.20
2008,06,05,10,46,6.40
2008,06,05,10,47,6.40
2008,06,05,10,48,0.00
2008,06,05,10,49,3.20
2008,06,05,10,50,6.40
2008,06,05,10,51,4.80
2008,06,05,10,52,4.80
2008,06,05,10,53,6.40
2008,06,05,10,54,3.20
2008,06,05,10,55,3.20
2008,06,05,10,56,1.60
2008,06,05,10,57,3.20
2008,06,05,10,58,6.40
2008,06,05,10,59,4.80
2008,06,05,11,00,4.80
2008,06,05,11,01,3.20
2008,06,05,11,02,3.20
2008,06,05,11,03,9.60
2008,06,05,11,04,8.10
2008,06,05,11,05,4.80
2008,06,05,11,06,3.20
2008,06,05,11,07,1.60
2008,06,05,11,08,6.40
2008,06,05,11,09,9.60
2008,06,05,11,10,4.80
2008,06,05,11,11,9.60
2008,06,05,11,12,9.60
2008,06,05,11,13,4.80
2008,06,05,11,14,9.60
2008,06,05,11,15,8.10
2008,06,05,11,16,11.30
2008,06,05,11,17,6.40
2008,06,05,11,18,3.20
2008,06,05,11,19,6.40
2008,06,05,11,20,6.40
2008,06,05,11,21,8.10
2008,06,05,11,22,1.60
2008,06,05,11,23,3.20
2008,06,05,11,24,8.10
2008,06,05,11,25,8.10
2008,06,05,11,26,8.10
2008,06,05,11,27,4.80
2008,06,05,11,28,9.60
2008,06,05,11,29,4.80
2008,06,05,11,30,3.20
2008,06,05,11,31,4.80
2008,06,05,11,32,4.80
2008,06,05,11,33,6.40
2008,06,05,11,34,6.40
2008,06,05,11,35,6.40
2008,06,05,11,36,17.70
2008,06,05,11,37,4.80
2008,06,05,11,38,6.40
2008,06,05,11,39,4.80
2008,06,05,11,40,3.20
2008,06,05,11,41,3.20
2008,06,05,11,42,3.20
2008,06,05,11,43,4.80
2008,06,05,11,44,8.10
2008,06,05,11,45,8.10
2008,06,05,11,46,9.60
2008,06,05,11,47,6.40
2008,06,05,11,48,8.10
2008,06,05,11,49,9.60
2008,06,05,11,50,4.80
2008,06,05,11,51,9.60
2008,06,05,11,52,14.50
2008,06,05,11,53,6.40
2008,06,05,11,54,3.20
2008,06,05,11,55,14.50
2008,06,05,11,56,8.10
2008,06,05,11,57,11.30
2008,06,05,11,58,11.30
2008,06,05,11,59,8.10
2008,06,05,12,00,14.50
2008,06,05,12,01,12.90
2008,06,05,12,02,9.60
2008,06,05,12,03,9.60
2008,06,05,12,04,11.30
2008,06,05,12,05,11.30
2008,06,05,12,06,16.10
2008,06,05,12,07,8.10
2008,06,05,12,08,8.10
2008,06,05,12,09,4.80
2008,06,05,12,10,6.40
2008,06,05,12,11,4.80
2008,06,05,12,12,8.10
2008,06,05,12,13,4.80
2008,06,05,12,14,4.80
2008,06,05,12,15,6.40
2008,06,05,12,16,11.30
2008,06,05,12,17,14.50
2008,06,05,12,18,4.80
2008,06,05,12,19,6.40
2008,06,05,12,20,11.30
2008,06,05,12,21,6.40
2008,06,05,12,22,8.10
2008,06,05,12,23,8.10
2008,06,05,12,24,16.10
2008,06,05,12,25,8.10
2008,06,05,12,26,4.80
2008,06,05,12,27,8.10
2008,06,05,12,28,9.60
2008,06,05,12,29,12.90
2008,06,05,12,30,9.60
2008,06,05,12,31,9.60
2008,06,05,12,32,6.40
2008,06,05,12,33,3.20
2008,06,05,12,34,19.30
2008,06,05,12,35,9.60
2008,06,05,12,36,32.20
2008,06,05,12,37,16.10
2008,06,05,12,38,16.10
2008,06,05,12,39,25.70
2008,06,05,12,40,19.30
2008,06,05,12,41,11.30
2008,06,05,12,42,20.90
2008,06,05,12,43,16.10
2008,06,05,12,44,16.10
2008,06,05,12,45,4.80
2008,06,05,12,46,17.70
2008,06,05,12,47,16.10
2008,06,05,12,48,14.50
2008,06,05,12,49,17.70
2008,06,05,12,50,16.10
2008,06,05,12,51,6.40
2008,06,05,12,52,19.30
2008,06,05,12,53,11.30
2008,06,05,12,54,11.30
2008,06,05,12,55,20.90
2008,06,05,12,56,9.60
2008,06,05,12,57,17.70
2008,06,05,12,58,11.30
2008,06,05,12,59,14.50
2008,06,05,13,00,9.60
2008,06,05,13,01,4.80
2008,06,05,13,02,6.40
2008,06,05,13,03,11.30
2008,06,05,13,04,8.10
2008,06,05,13,05,11.30
2008,06,05,13,06,20.90
2008,06,05,13,07,16.10
2008,06,05,13,08,17.70
2008,06,05,13,09,17.70
2008,06,05,13,10,14.50
2008,06,05,13,11,19.30
2008,06,05,13,12,19.30
2008,06,05,13,13,19.30
2008,06,05,13,14,14.50
2008,06,05,13,15,9.60
2008,06,05,13,16,8.10
2008,06,05,13,17,8.10
2008,06,05,13,18,17.70
2008,06,05,13,19,14.50
2008,06,05,13,20,6.40
2008,06,05,13,21,9.60
2008,06,05,13,22,11.30
2008,06,05,13,23,11.30
2008,06,05,13,24,3.20
2008,06,05,13,25,9.60
2008,06,05,13,26,8.10
2008,06,05,13,27,9.60
2008,06,05,13,28,6.40
2008,06,05,13,29,8.10
2008,06,05,13,30,8.10
2008,06,05,13,31,9.60
2008,06,05,13,32,4.80
2008,06,05,13,33,1.60
2008,06,05,13,34,8.10
2008,06,05,13,35,8.10
2008,06,05,13,36,16.10
2008,06,05,13,37,8.10
2008,06,05,13,38,12.90
2008,06,05,13,39,6.40
2008,06,05,13,40,22.50
2008,06,05,13,41,11.30
2008,06,05,13,42,9.60
2008,06,05,13,43,8.10
2008,06,05,13,44,9.60
2008,06,05,13,45,25.70
2008,06,05,13,46,11.30
2008,06,05,13,47,11.30
2008,06,05,13,48,3.20
2008,06,05,13,49,14.50
2008,06,05,13,50,19.30
2008,06,05,13,51,20.90
2008,06,05,13,52,12.90
2008,06,05,13,53,24.20
2008,06,05,13,54,16.10
2008,06,05,13,55,6.40
2008,06,05,13,56,8.10
2008,06,05,13,57,11.30
2008,06,05,13,58,19.30
2008,06,05,13,59,8.10
2008,06,05,14,00,24.20
2008,06,05,14,01,17.70
2008,06,05,14,02,27.40
2008,06,05,14,03,17.70
2008,06,05,14,04,19.30
2008,06,05,14,05,14.50
2008,06,05,14,06,14.50
2008,06,05,14,07,22.50
2008,06,05,14,08,17.70
2008,06,05,14,09,19.30
2008,06,05,14,10,16.10
2008,06,05,14,11,14.50
2008,06,05,14,12,19.30
2008,06,05,14,13,25.70
2008,06,05,14,14,1.60
2008,06,05,14,15,20.90
2008,06,05,14,16,24.20
2008,06,05,14,17,9.60
2008,06,05,14,18,16.10
2008,06,05,14,19,16.10
2008,06,05,14,20,9.60
2008,06,05,14,21,9.60
2008,06,05,14,22,19.30
2008,06,05,14,23,14.50
2008,06,05,14,24,14.50
2008,06,05,14,25,16.10
2008,06,05,14,26,20.90
2008,06,05,14,27,22.50
2008,06,05,14,28,29.00
2008,06,05,14,29,16.10
2008,06,05,14,30,16.10
2008,06,05,14,31,17.70
2008,06,05,14,32,20.90
2008,06,05,14,33,16.10
2008,06,05,14,34,16.10
2008,06,05,14,35,24.20
2008,06,05,14,36,20.90
2008,06,05,14,37,29.00
2008,06,05,14,38,19.30
2008,06,05,14,39,20.90
2008,06,05,14,40,25.70
2008,06,05,14,41,9.60
2008,06,05,14,42,16.10
2008,06,05,14,43,20.90
2008,06,05,14,44,9.60
2008,06,05,14,45,29.00
2008,06,05,14,46,14.50
2008,06,05,14,47,17.70
2008,06,05,14,48,25.70
2008,06,05,14,49,20.90
2008,06,05,14,50,17.70
2008,06,05,14,51,12.90
2008,06,05,14,52,6.40
2008,06,05,14,53,22.50
2008,06,05,14,54,11.30
2008,06,05,14,55,16.10
2008,06,05,14,56,17.70
2008,06,05,14,57,27.40
2008,06,05,14,58,17.70
2008,06,05,14,59,11.30
2008,06,05,15,00,8.10
2008,06,05,15,01,9.60
2008,06,05,15,02,6.40
2008,06,05,15,03,20.90
2008,06,05,15,04,25.70
2008,06,05,15,05,17.70
2008,06,05,15,06,8.10
2008,06,05,15,07,16.10
2008,06,05,15,08,19.30
2008,06,05,15,09,19.30
2008,06,05,15,10,20.90
2008,06,05,15,11,27.40
2008,06,05,15,12,16.10
2008,06,05,15,13,17.70
2008,06,05,15,14,25.70
2008,06,05,15,15,22.50
2008,06,05,15,16,48.30
2008,06,05,15,17,25.70
2008,06,05,15,18,22.50
2008,06,05,15,19,30.60
2008,06,05,15,20,19.30
2008,06,05,15,21,12.90
2008,06,05,15,22,11.30
2008,06,05,15,23,20.90
2008,06,05,15,24,14.50
2008,06,05,15,25,9.60
2008,06,05,15,26,4.80
2008,06,05,15,27,9.60
2008,06,05,15,28,19.30
2008,06,05,15,29,24.20
2008,06,05,15,30,17.70
2008,06,05,15,31,11.30
2008,06,05,15,32,22.50
2008,06,05,15,33,9.60
2008,06,05,15,34,14.50
2008,06,05,15,35,16.10
2008,06,05,15,36,20.90
2008,06,05,15,37,19.30
2008,06,05,15,38,16.10
2008,06,05,15,39,19.30
2008,06,05,15,40,11.30
2008,06,05,15,41,19.30
2008,06,05,15,42,25.70
2008,06,05,15,43,14.50
2008,06,05,15,44,19.30
2008,06,05,15,45,19.30
2008,06,05,15,46,19.30
2008,06,05,15,47,33.80
2008,06,05,15,48,17.70
2008,06,05,15,49,16.10
2008,06,05,15,50,16.10
2008,06,05,15,51,14.50
2008,06,05,15,52,14.50
2008,06,05,15,53,11.30
2008,06,05,15,54,14.50
2008,06,05,15,55,9.60
2008,06,05,15,56,25.70
2008,06,05,15,57,27.40
2008,06,05,15,58,17.70
2008,06,05,15,59,32.20
2008,06,05,16,00,20.90
2008,06,05,16,01,20.90
2008,06,05,16,02,33.80
2008,06,05,16,03,24.20
2008,06,05,16,04,20.90
2008,06,05,16,05,17.70
2008,06,05,16,06,17.70
2008,06,05,16,07,6.40
2008,06,05,16,08,6.40
2008,06,05,16,09,19.30
2008,06,05,16,10,16.10
2008,06,05,16,11,19.30
2008,06,05,16,12,9.60
2008,06,05,16,13,14.50
2008,06,05,16,14,24.20
2008,06,05,16,15,14.50
2008,06,05,16,16,16.10
2008,06,05,16,17,9.60
2008,06,05,16,18,11.30
2008,06,05,16,19,22.50
2008,06,05,16,20,22.50
2008,06,05,16,21,16.10
2008,06,05,16,22,22.50
2008,06,05,16,23,20.90
2008,06,05,16,24,25.70
2008,06,05,16,25,9.60
2008,06,05,16,26,24.20
2008,06,05,16,27,16.10
2008,06,05,16,28,17.70
2008,06,05,16,29,20.90
2008,06,05,16,30,29.00
2008,06,05,16,31,29.00
2008,06,05,16,32,17.70
2008,06,05,16,33,14.50
2008,06,05,16,34,20.90
2008,06,05,16,35,22.50
2008,06,05,16,36,20.90
2008,06,05,16,37,20.90
2008,06,05,16,38,20.90
2008,06,05,16,39,19.30
2008,06,05,16,40,16.10
2008,06,05,16,41,22.50
2008,06,05,16,42,24.20
2008,06,05,16,43,27.40
2008,06,05,16,44,22.50
2008,06,05,16,45,14.50
2008,06,05,16,46,17.70
2008,06,05,16,47,11.30
2008,06,05,16,48,19.30
2008,06,05,16,49,24.20
2008,06,05,16,50,29.00
2008,06,05,16,51,35.40
2008,06,05,16,52,27.40
2008,06,05,16,53,17.70
2008,06,05,16,54,19.30
2008,06,05,16,55,30.60
2008,06,05,16,56,24.20
2008,06,05,16,57,22.50
2008,06,05,16,58,27.40
2008,06,05,16,59,11.30
2008,06,05,17,00,19.30
2008,06,05,17,01,20.90
2008,06,05,17,02,22.50
2008,06,05,17,03,17.70
2008,06,05,17,04,17.70
2008,06,05,17,05,14.50
2008,06,05,17,06,27.40
2008,06,05,17,07,17.70
2008,06,05,17,08,22.50
2008,06,05,17,09,20.90
2008,06,05,17,10,19.30
2008,06,05,17,11,22.50
2008,06,05,17,12,14.50
2008,06,05,17,13,11.30
2008,06,05,17,14,6.40
2008,06,05,17,15,4.80
2008,06,05,17,16,17.70
2008,06,05,17,17,19.30
2008,06,05,17,18,8.10
2008,06,05,17,19,9.60
2008,06,05,17,20,20.90
2008,06,05,17,21,22.50
2008,06,05,17,22,16.10
2008,06,05,17,23,14.50
2008,06,05,17,24,14.50
2008,06,05,17,25,11.30
2008,06,05,17,26,20.90
2008,06,05,17,27,8.10
2008,06,05,17,28,4.80
2008,06,05,17,29,4.80
2008,06,05,17,30,9.60
2008,06,05,17,31,16.10
2008,06,05,17,32,14.50
2008,06,05,17,33,9.60
2008,06,05,17,34,4.80
2008,06,05,17,35,17.70
2008,06,05,17,36,11.30
2008,06,05,17,37,11.30
2008,06,05,17,38,16.10
2008,06,05,17,39,20.90
2008,06,05,17,40,20.90
2008,06,05,17,41,24.20
2008,06,05,17,42,17.70
2008,06,05,17,43,25.70
2008,06,05,17,44,25.70
2008,06,05,17,45,24.20
2008,06,05,17,46,16.10
2008,06,05,17,47,19.30
2008,06,05,17,48,14.50
2008,06,05,17,49,14.50
2008,06,05,17,50,9.60
2008,06,05,17,51,9.60
2008,06,05,17,52,19.30
2008,06,05,17,53,20.90